SAA327 FAOR-FACT

Flight info

Callsign SAA327
Flight time N/A
Altitude 38000
Route RAGUL3A RAGUL DCT UTEBA DCT APMIN DCT EVESI DCT EGNOM DCT NOKOX DCT ERDAS ERDAS1B
Aircraft A343/H-SDE2E3FGHIJ4J5M1RWXY/LB1D1

Departure

Time 2026-05-05 13:12
Airport O.R. Tambo International Airport (FAOR)

Arrival

Time N/A
Airport Cape Town International Airport (FACT)
Time Latitude Longitude Altitude Speed Heading
2026-05-05 12:31 -26.13024 28.23469 5550 ft 0 kts
2026-05-05 13:00 -26.13045 28.23467 5551 ft 2 kts
2026-05-05 13:00 -26.13062 28.23464 5549 ft 2 kts
2026-05-05 13:01 -26.13110 28.23450 5552 ft 2 kts 66°
2026-05-05 13:01 -26.13113 28.23437 5550 ft 1 kts 83°
2026-05-05 13:01 -26.13113 28.23435 5549 ft 0 kts 87°
2026-05-05 13:03 -26.13113 28.23436 5549 ft 1 kts 87°
2026-05-05 13:03 -26.13113 28.23446 5552 ft 3 kts 89°
2026-05-05 13:03 -26.13115 28.23478 5550 ft 6 kts 95°
2026-05-05 13:04 -26.13120 28.23536 5553 ft 9 kts 96°
2026-05-05 13:04 -26.13129 28.23625 5549 ft 13 kts 96°
2026-05-05 13:04 -26.13176 28.23691 5549 ft 9 kts 170°
2026-05-05 13:04 -26.13229 28.23674 5549 ft 8 kts 201°
2026-05-05 13:05 -26.13286 28.23653 5550 ft 8 kts 196°
2026-05-05 13:05 -26.13342 28.23635 5549 ft 9 kts 195°
2026-05-05 13:05 -26.13403 28.23616 5552 ft 10 kts 195°
2026-05-05 13:05 -26.13477 28.23593 5553 ft 12 kts 195°
2026-05-05 13:06 -26.13563 28.23566 5553 ft 13 kts 195°
2026-05-05 13:06 -26.13652 28.23539 5556 ft 13 kts 195°
2026-05-05 13:06 -26.13734 28.23514 5557 ft 11 kts 195°
2026-05-05 13:06 -26.13808 28.23491 5559 ft 12 kts 195°
2026-05-05 13:07 -26.13903 28.23462 5560 ft 16 kts 196°
2026-05-05 13:07 -26.14017 28.23426 5564 ft 18 kts 195°
2026-05-05 13:07 -26.14140 28.23388 5564 ft 19 kts 195°
2026-05-05 13:07 -26.14274 28.23346 5566 ft 19 kts 195°
2026-05-05 13:08 -26.14376 28.23315 5567 ft 15 kts 196°
2026-05-05 13:08 -26.14488 28.23281 5567 ft 18 kts 190°
2026-05-05 13:08 -26.14573 28.23295 5567 ft 7 kts 153°
2026-05-05 13:08 -26.14605 28.23351 5566 ft 11 kts 109°
2026-05-05 13:09 -26.14620 28.23433 5565 ft 6 kts 85°
2026-05-05 13:09 -26.14610 28.23459 5564 ft 3 kts 59°
2026-05-05 13:09 -26.14601 28.23467 5564 ft 2 kts 37°
2026-05-05 13:09 -26.14583 28.23471 5564 ft 4 kts
2026-05-05 13:10 -26.14527 28.23471 5564 ft 12 kts
2026-05-05 13:10 -26.14505 28.23478 5563 ft 0 kts 15°
2026-05-05 13:10 -26.14504 28.23478 5563 ft 1 kts 15°
2026-05-05 13:10 -26.14500 28.23479 5563 ft 0 kts 15°
2026-05-05 13:11 -26.14499 28.23480 5563 ft 2 kts 15°
2026-05-05 13:11 -26.14288 28.23545 5566 ft 70 kts 15°
2026-05-05 13:11 -26.13567 28.23768 5558 ft 144 kts 15°
2026-05-05 13:12 -26.12429 28.24159 5679 ft 186 kts 14°
2026-05-05 13:12 -26.11116 28.24625 6083 ft 209 kts
2026-05-05 13:12 -26.09654 28.24773 6827 ft 208 kts 354°
2026-05-05 13:12 -26.08259 28.24730 7841 ft 201 kts 356°
2026-05-05 13:13 -26.06823 28.24730 8387 ft 220 kts
2026-05-05 13:13 -26.05213 28.25194 8748 ft 258 kts 12°
2026-05-05 13:13 -26.03372 28.25836 8919 ft 298 kts 13°
2026-05-05 13:13 -26.01392 28.26535 8971 ft 289 kts 13°
2026-05-05 13:14 -25.99549 28.27210 9005 ft 269 kts 13°
2026-05-05 13:14 -25.97839 28.27859 9009 ft 250 kts 13°
2026-05-05 13:14 -25.96265 28.28474 9054 ft 230 kts 14°
2026-05-05 13:14 -25.94803 28.29060 9058 ft 219 kts 14°
2026-05-05 13:15 -25.93386 28.29636 9043 ft 216 kts 14°
2026-05-05 13:15 -25.91954 28.30220 9133 ft 221 kts 14°
2026-05-05 13:15 -25.90518 28.30814 9676 ft 220 kts 14°
2026-05-05 13:15 -25.89088 28.31425 10533 ft 220 kts 14°
2026-05-05 13:16 -25.87660 28.32051 11470 ft 222 kts 13°
2026-05-05 13:16 -25.86181 28.32311 12331 ft 212 kts 345°
2026-05-05 13:16 -25.84958 28.31495 13189 ft 211 kts 308°
2026-05-05 13:16 -25.84542 28.29907 14001 ft 229 kts 273°
2026-05-05 13:17 -25.85101 28.28217 14495 ft 247 kts 242°
2026-05-05 13:17 -25.86508 28.26963 14797 ft 276 kts 216°
2026-05-05 13:17 -25.88268 28.26021 14943 ft 283 kts 212°
2026-05-05 13:17 -25.90071 28.25133 14998 ft 284 kts 211°
2026-05-05 13:18 -25.91869 28.24259 15003 ft 280 kts 212°
2026-05-05 13:18 -25.93589 28.23348 14996 ft 275 kts 216°
2026-05-05 13:18 -25.95263 28.22341 14994 ft 273 kts 219°
2026-05-05 13:18 -25.96880 28.21244 14991 ft 272 kts 221°
2026-05-05 13:19 -25.98439 28.20081 15059 ft 267 kts 224°
2026-05-05 13:19 -25.99949 28.18866 15121 ft 266 kts 226°
2026-05-05 13:19 -26.01419 28.17603 15361 ft 268 kts 228°
2026-05-05 13:19 -26.02863 28.16295 15988 ft 267 kts 229°
2026-05-05 13:20 -26.04280 28.14965 16783 ft 268 kts 230°
2026-05-05 13:20 -26.05693 28.13599 17532 ft 270 kts 231°
2026-05-05 13:20 -26.07102 28.12204 18275 ft 273 kts 231°
2026-05-05 13:20 -26.08516 28.10781 18941 ft 275 kts 232°
2026-05-05 13:21 -26.09927 28.09348 19608 ft 275 kts 232°
2026-05-05 13:21 -26.11339 28.07900 20237 ft 278 kts 232°
2026-05-05 13:21 -26.12759 28.06433 20893 ft 280 kts 233°
2026-05-05 13:21 -26.14189 28.04950 21515 ft 282 kts 233°
2026-05-05 13:22 -26.15626 28.03455 22155 ft 284 kts 233°
2026-05-05 13:22 -26.17075 28.01946 22771 ft 286 kts 233°
2026-05-05 13:22 -26.18529 28.00428 23426 ft 288 kts 233°
2026-05-05 13:22 -26.19996 27.98892 23961 ft 291 kts 233°
2026-05-05 13:23 -26.21478 27.97342 24453 ft 294 kts 234°
2026-05-05 13:23 -26.22975 27.95776 24949 ft 297 kts 234°
2026-05-05 13:23 -26.24488 27.94193 25444 ft 300 kts 234°
2026-05-05 13:23 -26.26013 27.92595 25945 ft 302 kts 234°
2026-05-05 13:24 -26.27552 27.90982 26438 ft 305 kts 235°
2026-05-05 13:24 -26.29105 27.89355 26944 ft 308 kts 235°
2026-05-05 13:24 -26.30670 27.87712 27448 ft 311 kts 236°
2026-05-05 13:24 -26.32230 27.86073 27938 ft 313 kts 236°
2026-05-05 13:25 -26.33822 27.84400 28408 ft 316 kts 236°
2026-05-05 13:25 -26.35430 27.82708 28905 ft 319 kts 236°
2026-05-05 13:25 -26.37049 27.81004 29386 ft 321 kts 236°
2026-05-05 13:25 -26.38679 27.79289 29877 ft 324 kts 237°
2026-05-05 13:26 -26.40326 27.77556 30304 ft 327 kts 237°
2026-05-05 13:26 -26.41982 27.75810 30726 ft 329 kts 237°
2026-05-05 13:26 -26.43648 27.74056 31144 ft 330 kts 237°
2026-05-05 13:26 -26.45322 27.72294 31573 ft 332 kts 237°
2026-05-05 13:27 -26.47025 27.70500 32006 ft 333 kts 238°
2026-05-05 13:27 -26.48694 27.68737 32414 ft 335 kts 238°
2026-05-05 13:27 -26.50389 27.66946 32806 ft 337 kts 238°
2026-05-05 13:27 -26.52093 27.65143 33203 ft 339 kts 238°
2026-05-05 13:28 -26.53806 27.63329 33587 ft 341 kts 238°
2026-05-05 13:28 -26.55530 27.61501 33968 ft 343 kts 238°
2026-05-05 13:28 -26.57261 27.59666 34287 ft 345 kts 238°
2026-05-05 13:28 -26.59003 27.57816 34601 ft 347 kts 238°
2026-05-05 13:29 -26.60758 27.55952 34916 ft 349 kts 238°
2026-05-05 13:29 -26.62521 27.54080 35254 ft 351 kts 238°
2026-05-05 13:29 -26.64296 27.52195 35587 ft 353 kts 238°
2026-05-05 13:29 -26.66082 27.50299 35918 ft 355 kts 238°
2026-05-05 13:30 -26.67878 27.48392 36259 ft 357 kts 238°
2026-05-05 13:30 -26.69685 27.46473 36563 ft 360 kts 238°
2026-05-05 13:30 -26.71504 27.44541 36908 ft 362 kts 238°
2026-05-05 13:30 -26.73334 27.42599 37248 ft 364 kts 238°
2026-05-05 13:31 -26.75175 27.40644 37568 ft 365 kts 238°
2026-05-05 13:31 -26.77005 27.38709 37740 ft 361 kts 238°
2026-05-05 13:31 -26.80679 27.34798 37850 ft 370 kts 238°
2026-05-05 13:32 -26.84427 27.30808 37823 ft 371 kts 238°
2026-05-05 13:32 -26.88151 27.26840 37801 ft 371 kts 238°
2026-05-05 13:33 -26.91903 27.22819 37838 ft 374 kts 237°
2026-05-05 13:33 -26.95675 27.18808 37861 ft 373 kts 238°
2026-05-05 13:34 -26.99418 27.14820 37849 ft 370 kts 238°
2026-05-05 13:34 -27.03135 27.10846 37863 ft 373 kts 238°
2026-05-05 13:35 -27.06889 27.06824 37865 ft 374 kts 238°
2026-05-05 13:35 -27.10650 27.02796 37863 ft 373 kts 238°
2026-05-05 13:36 -27.14407 26.98768 37862 ft 374 kts 238°
2026-05-05 13:36 -27.18169 26.94728 37865 ft 375 kts 239°
2026-05-05 13:37 -27.21938 26.90674 37865 ft 375 kts 239°
2026-05-05 13:37 -27.25703 26.86624 37853 ft 374 kts 239°
2026-05-05 13:38 -27.29465 26.82575 37852 ft 374 kts 239°
2026-05-05 13:38 -27.33227 26.78514 37852 ft 375 kts 239°
2026-05-05 13:39 -27.36989 26.74452 37851 ft 375 kts 239°
2026-05-05 13:39 -27.40746 26.70393 37848 ft 374 kts 239°
2026-05-05 13:40 -27.44017 26.66855 37846 ft 374 kts 239°